Location: Corralito
(14.1667°N, 87.1833°W)
Time: 01:17:14
(UTC+00:00)

Daily predictions for brighter satellites

Satellite Brightness Start Highest point End
(mag) Time Altitude Azimuth Time Altitude Azimuth Time Altitude Azimuth
Cosmos 1536 3.1 00:30:32 10° N 00:34:35 73° W 00:38:36 10° S
CZ-4 R/B 1.5 00:32:16 10° SSE 00:36:28 77° E 00:40:40 10° N
Cosmos 2034 Rocket 4.5 00:30:55 10° NNE 00:36:35 39° E 00:42:16 10° SSE
NOSS 2-2 (D) 3.3 00:34:58 10° SSW 00:39:09 81° WNW 00:42:43 10° NNE
Milstar 3 Cent rocket 2.5 00:38:02 10° WSW 00:42:55 85° NNW 00:51:02 10° ENE
Cosmos 1703 Rocket 4.0 00:40:04 10° SSW 00:44:21 66° W 00:48:38 10° N
Cosmos 614 Rocket 4.0 00:43:12 10° N 00:48:16 65° ENE 00:53:23 10° SSE
GPS 2-14 Rocket1 3.3 00:45:31 10° W 00:49:36 59° NNW 00:53:43 10° ENE
Cosmos 332 Rocket 3.8 00:45:35 10° S 00:50:29 84° ESE 00:55:23 10° NNE
Cosmos 1464 Rocket 4.1 00:44:57 10° N 00:51:20 87° E 00:57:39 10° S
H-2A R/B 3.1 00:48:05 10° SE 00:52:08 25° ENE 00:56:15 10° NNE
STARLINK-1095 4.5 00:50:41 10° NNW 00:54:28 35° NE 00:57:37 14° ESE
SL-24 R/B 4.4 00:50:13 10° SSE 00:54:42 61° ENE 00:59:40 10° N
STARLINK-1329 4.4 00:52:11 10° S 00:55:39 28° ESE 00:59:07 10° ENE
Cosmos 1943 Rocket 3.1 00:51:31 10° SSE 00:55:53 24° ESE 01:00:15 10° NE
STARLINK-1077 4.3 00:55:32 10° NNW 00:59:26 40° NE 01:02:24 16° ESE
Meteor 1-4 Rocket 3.5 00:56:18 10° SSW 00:59:37 48° W 01:02:57 10° N
Okean 1-7 4.2 00:55:36 10° SSW 00:59:41 45° W 01:03:45 10° NNW
STARLINK-1362 4.2 00:56:34 10° S 01:00:09 32° ESE 01:03:45 10° ENE
Cosmos 1437 Rocket 4.0 00:58:26 13° SE 01:00:43 20° E 01:03:34 10° NE
STARLINK-1075 4.1 01:00:27 10° NNW 01:04:25 46° NE 01:07:11 18° ESE
STARLINK-1373 4.1 01:00:58 10° S 01:04:40 36° ESE 01:08:22 10° ENE
Geosat 4.2 01:00:08 10° SSE 01:05:08 74° WSW 01:10:08 10° NNW
CZ-2C R/B 3.3 01:00:19 10° NE 01:05:16 33° E 01:10:08 10° SSE
STARLINK-1320 2.8 01:02:31 10° SSW 01:05:34 61° SE 01:08:38 10° NE
STARLINK-1322 2.8 01:02:52 10° SSW 01:05:55 61° SE 01:08:58 10° NE
STARLINK-1324 2.7 01:03:11 10° SSW 01:06:14 62° SE 01:09:18 10° NE
STARLINK-1294 2.7 01:03:31 10° SSW 01:06:33 63° SE 01:09:35 10° NE
STARLINK-1261 2.7 01:03:51 10° SSW 01:06:56 64° SE 01:09:59 10° NE
STARLINK-1325 2.7 01:04:12 10° SSW 01:07:17 65° SE 01:10:20 10° NE
STARLINK-1333 2.7 01:04:35 10° SSW 01:07:39 66° SE 01:10:43 10° NE
STARLINK-1334 2.7 01:04:51 10° SSW 01:07:56 67° SE 01:11:00 10° NE
STARLINK-1326 2.7 01:05:10 10° SSW 01:08:15 68° SE 01:11:19 10° NE
STARLINK-1323 2.7 01:05:33 10° SSW 01:08:38 69° SE 01:11:42 10° NE
STARLINK-1349 2.7 01:05:51 10° SSW 01:08:55 70° SE 01:12:00 10° NE
STARLINK-1390 3.9 01:05:26 10° SSW 01:09:14 41° SE 01:13:03 10° NE
STARLINK-1336 2.7 01:06:10 10° SSW 01:09:15 71° SE 01:12:20 10° NE
SWIFT 3.8 01:05:29 10° WNW 01:09:22 33° N 01:13:15 10° ENE
STARLINK-1093 3.8 01:05:22 10° NNW 01:09:24 54° NE 01:11:59 21° SE
STARLINK-1331 2.7 01:06:33 10° SSW 01:09:38 72° SE 01:12:43 10° NE
STARLINK-1344 2.7 01:06:51 10° SSW 01:09:56 73° SE 01:13:01 10° NE
Cosmos 1743 2.7 01:06:16 10° N 01:10:03 85° W 01:13:52 10° S
STARLINK-1343 2.7 01:07:13 10° SSW 01:10:19 74° SE 01:13:24 10° NE
STARLINK-1346 2.7 01:07:32 10° SSW 01:10:36 75° ESE 01:13:41 10° NE
STARLINK-1328 2.7 01:07:56 10° SSW 01:11:02 76° SE 01:14:06 10° NE
Aureole 2 Rocket 3.1 01:08:04 10° SSW 01:11:14 50° WNW 01:14:14 10° N
STARLINK-1354 2.7 01:08:14 10° SSW 01:11:19 77° SE 01:14:24 10° NE
STARLINK-1347 2.7 01:08:30 10° SSW 01:11:36 78° SE 01:14:41 10° NE
STARLINK-1357 2.7 01:08:57 10° SSW 01:12:02 80° SE 01:15:07 10° NE
ATLAS CENTAUR R/B 3.6 01:14:39 12° ENE 01:14:39 12° ENE 01:15:13 10° ENE
STARLINK-1335 2.7 01:09:13 10° SSW 01:12:18 81° SE 01:15:24 10° NE
Cosmos 1908 Rocket 3.8 01:07:56 10° N 01:12:23 76° W 01:16:50 10° S
STARLINK-1327 2.7 01:09:35 10° SSW 01:12:40 82° SE 01:15:45 10° NE
Cosmos 2221 Rocket 3.6 01:08:19 10° S 01:12:46 65° E 01:17:15 10° NNE
STARLINK-1340 2.7 01:09:52 10° SSW 01:12:57 83° SE 01:16:03 10° NE
STARLINK-1356 2.7 01:10:15 10° SSW 01:13:21 84° ESE 01:16:26 10° NE
Cosmos 1140 Rocket 3.5 01:08:23 10° N 01:13:33 63° ENE 01:18:00 14° SSE
STARLINK-1345 2.7 01:10:34 10° SW 01:13:39 85° SE 01:16:45 10° NE
STARLINK-1355 2.7 01:10:55 10° SW 01:14:01 86° SE 01:17:06 10° NE
Cosmos 407 Rocket 3.5 01:08:40 10° NNW 01:14:01 87° W 01:19:18 10° SSE
STARLINK-1321 2.7 01:11:16 10° SW 01:14:21 87° SE 01:17:27 10° NE
STARLINK-1074 3.7 01:10:17 10° NNW 01:14:22 63° NE 01:16:46 23° SE
STARLINK-1358 2.7 01:11:39 10° SW 01:14:45 89° ESE 01:17:50 10° NE
STARLINK-1332 2.7 01:11:56 10° SW 01:15:02 90° ENE 01:18:07 10° NE
STARLINK-1365 3.6 01:11:14 10° SSW 01:15:11 51° SE 01:19:08 10° NE
STARLINK-1348 2.7 01:12:16 10° SW 01:15:22 89° NW 01:18:28 10° NE
STARLINK-1330 2.8 01:12:36 10° SW 01:15:41 88° NW 01:18:47 10° NE
STARLINK-1363 2.8 01:12:56 10° SW 01:16:01 87° NW 01:19:06 10° NE
STARLINK-1337 2.8 01:13:18 10° SW 01:16:24 86° NW 01:19:29 10° NE
STARLINK-1342 2.8 01:13:37 10° SW 01:16:42 85° WNW 01:19:48 10° NE
STARLINK-1364 2.8 01:13:58 10° SW 01:17:03 84° NW 01:20:09 10° NE
STARLINK-1376 2.8 01:14:18 10° SW 01:17:23 83° WNW 01:20:29 10° NE
STARLINK-1360 2.8 01:14:39 10° SW 01:17:43 81° NW 01:20:49 10° NNE
USA 267 4.4 01:13:43 14° E 01:17:52 27° NE 01:23:09 10° N
STARLINK-1361 2.9 01:14:59 10° SW 01:18:04 80° NW 01:21:09 10° NNE
STARLINK-1367 2.9 01:15:17 10° SW 01:18:21 79° NW 01:21:25 10° NNE
STARLINK-1366 2.9 01:15:38 10° SW 01:18:43 78° NW 01:21:48 10° NNE
Cosmos 972 Rocket 4.4 01:13:32 10° S 01:19:10 57° E 01:25:31 10° NNE
Lacrosse 5 3.5 01:17:51 10° N 01:21:25 19° NE 01:23:05 17° E
H-2A ROCKET BODY 1.7 01:19:08 10° WSW 01:21:36 61° NNW 01:28:35 10° ENE
Hubble Space Telescope 1.2 01:19:14 10° WNW 01:23:14 50° SSW 01:25:08 27° SSE
STARLINK-1088 3.5 01:20:10 10° NW 01:24:17 85° NE 01:26:19 29° SE
Palapa 6 Rocket 3.7 01:21:03 10° SW 01:24:38 31° SSE 01:25:26 29° SE
ATLAS 2AS CENTAUR R/B 3.3 01:18:07 10° S 01:25:10 43° ESE 01:32:32 10° NE
STARLINK-1338 3.3 01:21:25 10° SSW 01:25:22 70° SE 01:29:18 10° NE
Cosmos 1833 Rocket 3.2 01:20:22 10° N 01:25:35 40° ENE 01:28:03 26° ESE
Okean 3 3.9 01:24:28 10° SSW 01:28:42 64° W 01:32:58 10° N
STARLINK-1115 3.6 01:25:07 10° NW 01:29:15 83° SW 01:31:05 32° SSE
Delta 198 3.9 01:24:06 10° WNW 01:29:55 77° SSW 01:32:17 32° ESE
Meteor 2-4 Rocket 4.3 01:26:07 10° SSW 01:31:22 55° W 01:36:35 10° N
Cosmos 2369 Rocket 2.6 01:26:41 10° S 01:31:56 39° ESE 01:37:10 10° NE
CZ-2C R/B 3.6 01:27:56 10° NNE 01:32:31 68° ESE 01:37:11 10° S
BREEZE-M DEB (TANK) 4.3 01:31:05 10° W 01:33:08 18° SW 01:36:07 11° S
STARLINK-1371 3.4 01:29:39 10° SW 01:33:36 90° NNW 01:37:32 10° NE
STARLINK-1076 3.7 01:30:07 10° NW 01:34:13 71° SW 01:35:53 34° SSE
STARLINK-1341 3.5 01:34:02 10° SW 01:37:59 79° NW 01:41:56 10° NNE
STARLINK-1092 3.9 01:35:07 10° NW 01:39:11 61° SW 01:40:39 36° S
Okean 2 Rocket 3.8 01:35:49 10° NNE 01:39:39 34° E 01:39:39 34° E
ASC 2 Rocket 4.3 01:37:07 10° W 01:41:15 44° NNW 01:46:25 11° ENE
COSMOS 2406 3.3 01:36:12 10° NNW 01:41:54 75° WSW 01:45:42 22° S
STARLINK-1374 3.7 01:38:29 10° SW 01:42:27 69° NW 01:46:24 10° NNE
Sich 1 Rocket 3.5 01:38:30 10° N 01:43:03 75° E 01:44:44 38° SSE
Cosmos 2082 Rocket 2.9 01:38:49 10° N 01:43:51 33° ENE 01:44:37 31° E
STARLINK-1080 4.2 01:40:09 10° NW 01:44:10 52° SW 01:45:28 36° S
Cosmos 1300 Rocket 4.4 01:41:17 10° NNE 01:44:43 33° ENE 01:44:43 33° ENE
STARLINK-1339 4.0 01:42:40 10° SW 01:46:35 60° NW 01:50:29 10° NNE
STARLINK-1090 4.4 01:45:10 10° NW 01:49:07 44° SW 01:50:14 35° SSW
Ariane Rocket 2.9 01:47:46 30° S 01:50:22 86° WSW 01:55:27 10° NNW
STARLINK-1377 4.3 01:47:14 10° SW 01:51:07 52° NW 01:55:00 10° NNE
Cosmos 1378 Rocket 3.7 01:51:43 50° ENE 01:51:43 50° ENE 01:55:38 10° NNE
Cosmos 1674 Rocket 3.4 01:50:46 49° SSE 01:51:53 77° E 01:56:15 10° N
SL-4 R/B 2.9 01:49:34 10° NNW 01:50:55 26° NW 01:50:55 26° NW
FREGAT/IRIS 4.2 01:54:45 29° NNW 01:54:45 29° NNW 01:56:13 10° NNW
Nadezhda 4 Rocket 4.2 01:52:57 41° ESE 01:53:51 44° E 01:59:36 10° NNE
SJ-6B 2.7 01:54:36 65° NE 01:54:36 65° NE 01:57:57 10° N
Meteor 1-12 Rocket 4.4 01:49:32 10° N 01:55:08 54° E 01:56:14 47° ESE
Cosmos 1975 4.0 01:51:26 10° NNW 01:55:11 41° W 01:57:19 22° SSW
MetOp-A 4.4 01:55:07 44° E 01:55:35 45° ENE 02:00:40 10° N
SEDSat Delta rocket 4.4 01:49:50 10° WNW 01:56:15 54° SSW 01:58:35 37° SSE
MOS 1 4.2 01:53:59 38° SSE 01:56:16 78° ENE 02:01:57 10° N
Fermi 3.9 01:52:57 10° WSW 01:56:28 58° SSW 01:56:28 58° SSW
ATLAS 5 CENTAUR R/B 4.5 01:28:18 10° SSW 01:58:04 62° ESE 02:04:30 10° NE
Cosmos 1066 Rocket 3.9 01:59:00 40° S 02:00:59 77° E 02:06:19 10° N
Meteor 1-23 Rocket 4.1 02:00:34 30° S 02:03:31 85° E 02:09:10 10° N
APEX 4.5 01:59:08 10° SSW 02:06:17 81° ESE 02:12:35 10° NNE
CZ-2C R/B 4.4 02:04:54 14° SSW 02:09:03 38° W 02:14:15 10° NNW
Cosmos 2142 Rocket 4.4 02:08:10 10° N 02:14:22 89° ENE 02:16:03 52° S
Cosmos 1850 Rocket 4.4 02:09:19 10° N 02:13:46 49° NE 02:13:46 49° NE
GPS 2-12 Rocket1 3.3 02:11:47 10° WNW 02:15:32 61° WNW 02:15:32 61° WNW
Intelsat 5-1 Rocket 4.3 02:15:58 10° NW 02:16:07 11° NNW 02:16:07 11° NNW
Cosmos 1302 Rocket 4.4 02:18:02 26° SSW 02:20:58 61° WNW 02:26:11 10° N
Cosmos 2279 Rocket 3.8 02:15:22 10° N 02:21:34 84° E 02:22:14 72° SSE
Ariane 3 Deb 4.2 02:02:05 10° W 02:22:16 47° SSW 02:22:57 45° S
SPOT 3 Rocket 3.7 02:25:46 66° N 02:25:46 66° N 02:30:13 10° N
COSMOS 2455 4.3 02:32:32 25° NE 02:32:32 25° NE 02:34:56 10° NNE
H-2A R/B 4.2 02:28:20 12° SW 02:31:21 20° W 02:35:04 10° NW
Cosmos 2263 4.3 02:33:34 66° W 02:33:55 68° WNW 02:39:28 10° N
Centaur Rocket 4.4 02:30:26 10° W 02:35:02 37° W 02:35:02 37° W
Cosmos 1943 Rocket 4.3 02:35:01 10° WSW 02:39:22 24° WNW 02:43:45 10° NNW
ISS -0.2 02:45:11 10° NW 02:45:20 11° NW 02:45:20 11° NW
ATLAS CENTAUR R/B 3.6 02:50:19 25° WNW 02:50:55 26° WNW 02:54:38 10° N
USA 267 3.8 03:01:04 50° WSW 03:01:04 50° WSW 03:06:51 10° NW
Lacrosse 5 3.8 02:59:46 10° NW 03:02:19 25° WNW 03:02:19 25° WNW
Resurs 01 Rocket 4.4 03:18:11 16° NW 03:18:11 16° NW 03:19:10 10° NW
Cosmos 2082 Rocket 4.4 03:23:47 10° WNW 03:26:29 18° W 03:26:29 18° W
VEP-3 4.4 03:51:07 10° WNW 04:06:30 - ENE 03:53:40 26° WNW
ATLAS 3B CENTAUR R/B 4.3 04:07:06 10° WNW 04:17:40 37° NNW 04:17:40 37° NNW
CENTAUR R/B 4.4 04:15:23 10° NNW 04:19:52 35° N 04:19:52 35° N
USA 229 DEB 4.4 08:29:39 10° NNW 08:37:06 59° ENE 08:44:40 10° SE
USA 229 4.4 08:29:45 10° NNW 08:37:12 58° ENE 08:44:46 10° SE
NOSS 3-1 (C) 4.4 08:29:51 10° NNW 08:38:20 71° ENE 08:47:16 10° SSE
Cosmos 2237 Rocket 3.8 08:40:09 25° ESE 08:40:44 25° ESE 08:45:17 10° NE
Meteosat 1 Rocket2 4.2 08:51:54 52° NNE 08:51:54 52° NNE 08:57:44 10° ENE
COSMOS 2428 3.4 08:54:58 45° N 08:54:58 45° N 08:58:56 10° N
SL-08 R/B 4.4 08:55:50 83° NE 08:55:50 83° NE 09:01:58 10° N
Atlas Centaur 2 3.9 08:58:57 21° SE 08:58:57 21° SE 09:02:13 10° ESE
Delta 7925 Rocket 4.3 08:58:41 53° SE 08:58:41 53° SE 09:05:04 10° ENE
ERS-2 4.4 09:08:00 21° N 09:08:00 21° N 09:09:25 10° N
MSX 3.7 09:03:32 10° NNE 09:09:16 81° ESE 09:09:42 75° SSE
Cosmos 1339 Rocket 4.3 09:03:14 10° N 09:09:25 85° W 09:09:58 75° SSW
Cosmos 2112 Rocket 4.0 09:10:51 72° ESE 09:10:52 72° ESE 09:16:07 10° NNE
PSLV R/B 4.0 09:13:17 10° NNE 09:17:08 54° E 09:17:08 54° E
CZ-2C R/B 3.4 09:14:42 10° NNE 09:19:35 43° E 09:21:46 28° SSE
STARLINK-1064 4.2 09:20:33 54° ENE 09:20:33 54° ENE 09:23:51 10° NE
Cosmos 1500 Rocket 3.6 09:22:46 74° E 09:22:46 74° E 09:27:08 10° N
SL-4 R/B 4.5 09:19:31 10° N 09:23:14 24° NE 09:26:46 10° ESE
Cosmos 1606 3.9 09:19:42 10° N 09:22:08 38° N 09:22:08 38° N
Cosmos 2333 Rocket 3.7 09:25:41 22° NW 09:25:41 22° NW 09:28:53 10° NNW
STARLINK-1041 4.0 09:25:20 63° NE 09:25:20 63° NE 09:28:49 10° NE
Cosmos 1633 3.9 09:26:27 35° N 09:26:27 35° N 09:28:37 10° N
USA 32 4.2 09:24:04 43° SSE 09:25:45 71° E 09:30:57 10° N
Cosmos 2219 Rocket 3.6 09:28:31 23° NW 09:28:31 23° NW 09:31:48 10° NNW
COSMOS 2441 4.2 09:23:25 10° N 09:28:17 71° WNW 09:28:20 71° W
STARLINK-1038 3.7 09:30:08 69° NNE 09:30:08 69° NNE 09:33:48 10° NNE
Skynet4D Del rocket 3.7 09:27:18 33° WNW 09:30:20 83° NNE 09:36:03 10° ESE
NOSS 0 Rocket 4.0 09:32:42 51° WSW 09:33:49 59° WNW 09:39:51 10° N
Cosmos 1821 Rocket 3.9 09:31:56 42° SSW 09:34:12 73° W 09:40:31 10° N
STARLINK-1046 3.7 09:34:53 67° NNW 09:34:53 67° NNW 09:38:44 10° NNE
Cosmos 967 Rocket 4.5 09:33:16 40° SSW 09:35:48 86° ESE 09:42:16 10° NNE
Cosmos 158 Rocket 4.0 09:37:06 52° W 09:37:17 52° WNW 09:42:09 10° N
ATLAS 5 CENTAUR R/B 3.4 09:39:18 17° NW 09:39:18 17° NW 09:40:59 10° NNW
STARLINK-1039 3.7 09:39:41 60° NW 09:39:41 60° NW 09:43:41 10° NNE
CBERS 1 LM4 rocket 4.4 09:36:56 10° N 09:41:59 69° WNW 09:43:14 48° SW
Cosmos 2344 4.3 09:40:24 30° W 09:42:26 34° WNW 09:49:06 10° N
H-2A R/B 2.0 09:42:41 59° WSW 09:42:41 59° WSW 09:47:02 10° NNW
GPS 2-17 Rocket1 4.1 09:42:58 26° NW 09:44:34 36° N 09:48:34 10° ENE
STARLINK-1045 3.8 09:44:28 51° WNW 09:44:35 52° NW 09:48:36 10° NNE
IDEFIX/ARIANE 42P 3.9 09:41:11 10° NNW 09:44:41 23° WNW 09:44:41 23° WNW
Cosmos 1680 Rocket 4.3 09:48:29 32° W 09:48:41 33° WNW 09:53:21 10° NNW
STARLINK-1050 4.0 09:49:17 43° WNW 09:49:35 44° NW 09:53:32 10° NNE
Meteor 1-26 Rocket 4.4 09:46:19 10° N 09:52:19 81° E 09:58:18 10° S
Cosmos 1151 Rocket 3.3 09:49:19 10° NNW 09:53:28 43° W 09:53:37 43° W
CZ-4C R/B 4.2 09:55:24 28° NW 09:55:24 28° NW 09:57:32 10° NNW
STARLINK-1055 4.3 09:54:02 37° WNW 09:54:32 38° NW 09:58:24 10° NNE
deb Chang Zheng 4 4.2 09:53:18 10° N 09:57:09 34° WNW 09:57:23 34° W
Cosmos 1727 Rocket 4.1 09:52:04 10° NNW 09:58:00 51° W 10:02:50 16° SSW
Cosmos 1346 Rocket 3.3 09:58:20 38° W 09:58:23 38° W 10:02:06 10° NNW
ADEOS 3.5 09:53:32 10° N 09:58:43 74° WNW 10:02:09 22° SSW
Cosmos 1980 4.2 09:57:05 32° WSW 09:58:50 41° WNW 10:04:07 10° N
Sich 1 3.5 09:55:31 12° S 09:59:29 59° E 10:03:43 10° NNE
STARLINK-1022 4.5 09:58:49 31° WNW 09:59:31 33° NW 10:03:16 10° NNE
USA 234 3.3 09:54:25 10° NNE 10:00:54 70° NW 10:05:01 24° SW
GRACE-FO 1 4.5 10:01:13 10° N 10:04:55 72° W 10:07:05 23° SSW
GRACE-FO 2 4.5 10:01:36 10° N 10:05:18 71° W 10:07:28 23° SSW
Star 37E S/N 40105 4.0 10:05:10 45° WSW 10:05:54 75° SSE 10:12:12 10° E
Cosmos 1844 3.6 10:00:32 10° NNW 10:06:18 79° WSW 10:12:00 10° SSE
Cosmos 1515 Rocket 3.5 10:02:19 10° NNW 10:06:34 60° W 10:10:17 13° S
STARLINK-60 2.7 10:04:39 10° NW 10:07:49 78° SW 10:11:00 10° SSE
ARIANE 5 R/B 2.6 10:07:46 21° S 10:08:40 24° SSE 10:13:06 10° ESE
GEOS 3 Rocket 4.2 10:06:25 10° S 10:10:54 32° WSW 10:15:28 10° NW
EPKM 2.3 10:07:33 11° WNW 10:12:28 53° SSW 10:14:27 10° SE
Iridium 4 Rocket 3.8 10:12:18 22° SW 10:14:54 41° W 10:19:40 10° NNW
CZ-4B R/B 3.8 10:12:01 10° NNE 10:15:25 41° E 10:18:51 10° S
STARLINK-1175 3.5 10:17:37 28° WNW 10:17:58 29° NW 10:20:20 10° NNE
STARLINK-1195 4.5 10:19:21 13° SSW 10:22:42 43° SE 10:26:29 10° NE
Cosmos 1689 Rocket 3.9 10:21:34 10° SE 10:24:15 33° ENE 10:26:56 10° N
Cosmos 2237 Rocket 3.4 10:22:01 18° WSW 10:24:32 24° WNW 10:29:02 10° NNW
Fermi 3.8 10:21:45 15° W 10:24:55 54° SSW 10:28:56 10° SE
STARLINK-1152 4.3 10:23:29 12° SSW 10:27:00 49° SE 10:30:49 10° NE
CZ-3A R/B 3.9 10:23:17 12° W 10:28:16 58° N 10:51:02 10° ENE
ARIANE DEB (SYLDA) 3.2 10:25:23 16° WSW 10:29:45 35° S 10:33:09 10° ESE
Ariane H10-3 4.2 10:28:13 10° SSW 10:31:12 18° SSE 10:38:13 10° ESE
Palapa 6 Rocket 4.5 10:23:32 10° WNW 10:31:14 67° SSW 10:39:13 10° ESE
FENGYUN 3A 3.7 10:28:17 10° NNE 10:33:42 88° ESE 10:39:08 10° SSW
CZ-4B R/B 4.3 10:32:35 10° N 10:36:55 52° WNW 10:41:16 10° SSW
STARLINK-29 2.8 10:37:44 10° NW 10:40:53 85° WSW 10:44:02 10° SE
STARLINK-1176 3.7 10:37:32 10° SSW 10:41:40 82° SE 10:45:47 10° NE
Ariane 42L Rocket 3.0 10:41:47 10° S 10:42:25 11° SSE 10:43:12 10° SE
Cosmos 1633 Rocket 3.0 10:39:32 10° SSW 10:43:51 68° W 10:48:08 10° N
Cosmos 1844 Rocket 3.8 10:41:04 10° NW 10:45:09 21° WSW 10:49:16 10° SSW
OAO 3 Rocket 3.8 10:42:32 11° WSW 10:46:55 44° NNW 10:51:22 10° NE
SL-16 R/B 2.4 10:41:36 10° SSW 10:47:03 52° WNW 10:52:33 10° N
Atlas Centaur 2 1.9 10:41:33 11° WSW 10:47:14 88° SSE 10:51:50 10° ENE
STARLINK-1146 3.4 10:44:23 10° SW 10:48:17 83° NW 10:52:10 10° NNE
Cosmos 405 2.9 10:46:15 10° NNW 10:49:44 64° W 10:53:13 10° S
Meteor 1-10 Rocket 4.3 10:44:21 10° N 10:50:04 90° W 10:55:40 10° S
Cosmos 1666 Rocket 4.0 10:45:58 10° SSW 10:50:08 42° W 10:54:22 10° NNW
STARLINK-1179 3.6 10:47:29 10° SW 10:51:37 74° NW 10:55:44 10° NNE
PSLV R/B 4.5 10:47:58 10° SSE 10:51:58 63° ENE 10:55:57 10° N
STARLINK-1147 3.5 10:48:05 10° SW 10:51:58 74° NW 10:55:51 10° NNE
Aurora 2 Rocket 3.4 10:51:30 10° WNW 10:54:13 24° NNW 10:56:50 10° NE
CZ-4B R/B 2.7 10:52:24 10° SW 10:54:28 17° W 10:56:33 10° NW
Meteor 1-31 Rocket 4.0 10:52:32 10° NNW 10:55:40 24° WNW 10:58:48 10° SW
STARLINK-1173 3.7 10:52:31 10° SW 10:56:36 64° NW 11:00:41 10° NNE
CZ-2C R/B 4.4 10:55:22 10° NW 10:57:20 12° WNW 10:59:18 10° W
Meteor 2-6 Rocket 4.3 10:53:16 10° NNW 10:58:48 56° W 11:04:12 10° S
Cosmos 2173 Rocket 4.5 10:53:17 10° S 10:59:24 67° E 11:05:36 10° N
STARLINK-1185 3.7 10:55:51 10° SW 10:59:42 57° NW 11:03:32 10° NNE
Cosmos 1371 Rocket 4.3 10:55:28 10° N 11:00:40 77° ENE 11:05:55 10° SSE
ALOS 2.9 10:57:17 10° N 11:01:36 38° WNW 11:05:54 10° SW
